Time,TemperatureF,DewpointF,PressureIn,WindDirection,WindDirectionDegrees,WindSpeedMPH,WindSpeedGustMPH,Humidity,HourlyPrecipIn,Conditions,Clouds,dailyrainin,SolarRadiationWatts/m^2,SoftwareType,DateUTC
2013-05-11 00:21:00,67.0,47.0,-100.00,North,4,6.0,8.0,48,0.00,,,-99.99,0.000000,,2013-05-11 07:21:00,
2013-05-11 00:32:00,67.0,47.0,-100.00,North,4,6.0,8.0,48,0.00,,,-99.99,0.000000,,2013-05-11 07:32:00,
2013-05-11 00:42:00,67.0,47.0,-100.00,North,4,6.0,8.0,48,0.00,,,-99.99,0.000000,,2013-05-11 07:42:00,
2013-05-11 00:52:00,67.0,47.0,-100.00,North,4,6.0,8.0,48,0.00,,,-99.99,0.000000,,2013-05-11 07:52:00,
2013-05-11 01:21:00,66.0,45.0,-100.00,North,354,6.0,12.0,47,0.00,,,0.00,0.000000,,2013-05-11 08:21:00,
2013-05-11 01:31:00,66.0,45.0,-100.00,North,354,6.0,12.0,47,0.00,,,0.00,0.000000,,2013-05-11 08:31:00,
2013-05-11 01:42:00,66.0,45.0,-100.00,North,354,6.0,12.0,47,0.00,,,0.00,0.000000,,2013-05-11 08:42:00,
2013-05-11 01:51:00,66.0,45.0,-100.00,North,354,6.0,12.0,47,0.00,,,0.00,0.000000,,2013-05-11 08:51:00,
2013-05-11 02:21:00,63.0,44.0,-100.00,North,352,6.0,10.0,50,0.00,,,0.00,0.000000,,2013-05-11 09:21:00,
2013-05-11 02:32:00,63.0,44.0,-100.00,North,352,6.0,10.0,50,0.00,,,0.00,0.000000,,2013-05-11 09:32:00,
2013-05-11 02:42:00,63.0,44.0,-100.00,North,352,6.0,10.0,50,0.00,,,0.00,0.000000,,2013-05-11 09:42:00,
2013-05-11 02:52:00,63.0,44.0,-100.00,North,352,6.0,10.0,50,0.00,,,0.00,0.000000,,2013-05-11 09:52:00,
2013-05-11 03:22:00,64.0,44.0,-100.00,North,9,9.0,13.0,49,0.00,,,0.00,0.000000,,2013-05-11 10:22:00,
2013-05-11 03:33:00,64.0,44.0,-100.00,North,9,9.0,13.0,49,0.00,,,0.00,0.000000,,2013-05-11 10:33:00,
2013-05-11 03:42:00,64.0,44.0,-100.00,North,9,9.0,13.0,49,0.00,,,0.00,0.000000,,2013-05-11 10:42:00,
2013-05-11 03:52:00,64.0,44.0,-100.00,North,9,9.0,13.0,49,0.00,,,0.00,0.000000,,2013-05-11 10:52:00,
2013-05-11 04:21:00,62.0,42.0,-100.00,NNE,22,9.0,13.0,48,0.00,,,-99.99,0.000000,,2013-05-11 11:21:00,
2013-05-11 04:32:00,62.0,42.0,-100.00,NNE,22,9.0,13.0,48,0.00,,,-99.99,0.000000,,2013-05-11 11:32:00,
2013-05-11 04:42:00,62.0,42.0,-100.00,NNE,22,9.0,13.0,48,0.00,,,-99.99,0.000000,,2013-05-11 11:42:00,
2013-05-11 04:51:00,62.0,42.0,-100.00,NNE,22,9.0,13.0,48,0.00,,,-99.99,0.000000,,2013-05-11 11:51:00,
2013-05-11 05:21:00,61.0,42.0,-100.00,NNE,22,7.0,12.0,49,0.00,,,-99.99,0.000000,,2013-05-11 12:21:00,
2013-05-11 05:32:00,61.0,42.0,-100.00,NNE,22,7.0,12.0,49,0.00,,,-99.99,0.000000,,2013-05-11 12:32:00,
2013-05-11 05:42:00,61.0,42.0,-100.00,NNE,22,7.0,12.0,49,0.00,,,-99.99,0.000000,,2013-05-11 12:42:00,
2013-05-11 05:51:00,61.0,42.0,-100.00,NNE,22,7.0,12.0,49,0.00,,,-99.99,0.000000,,2013-05-11 12:51:00,
2013-05-11 06:21:00,60.0,41.0,-100.00,NNE,19,9.0,14.0,49,0.00,,,-99.99,0.000000,,2013-05-11 13:21:00,
2013-05-11 06:31:00,60.0,41.0,-100.00,NNE,19,9.0,14.0,49,0.00,,,-99.99,0.000000,,2013-05-11 13:31:00,
2013-05-11 06:41:00,60.0,41.0,-100.00,NNE,19,9.0,14.0,49,0.00,,,-99.99,0.000000,,2013-05-11 13:41:00,
2013-05-11 06:52:00,60.0,41.0,-100.00,NNE,19,9.0,14.0,49,0.00,,,-99.99,0.000000,,2013-05-11 13:52:00,
2013-05-11 07:21:00,62.0,41.0,-100.00,NNE,24,7.0,14.0,46,0.00,,,0.00,16.000000,,2013-05-11 14:21:00,
2013-05-11 07:32:00,62.0,41.0,-100.00,NNE,24,7.0,14.0,46,0.00,,,0.00,16.000000,,2013-05-11 14:32:00,
2013-05-11 07:41:00,62.0,41.0,-100.00,NNE,24,7.0,14.0,46,0.00,,,0.00,16.000000,,2013-05-11 14:41:00,
2013-05-11 07:51:00,62.0,41.0,-100.00,NNE,24,7.0,14.0,46,0.00,,,0.00,16.000000,,2013-05-11 14:51:00,
2013-05-11 08:21:00,67.0,43.0,-100.00,South,190,0.0,10.0,42,0.00,,,0.00,174.000000,,2013-05-11 15:21:00,
2013-05-11 08:32:00,67.0,43.0,-100.00,South,190,0.0,10.0,42,0.00,,,0.00,174.000000,,2013-05-11 15:32:00,
2013-05-11 08:42:00,67.0,43.0,-100.00,South,190,0.0,10.0,42,0.00,,,0.00,174.000000,,2013-05-11 15:42:00,
2013-05-11 08:53:00,67.0,43.0,-100.00,South,190,0.0,10.0,42,0.00,,,0.00,174.000000,,2013-05-11 15:53:00,
2013-05-11 09:22:00,71.0,43.0,-100.00,SSW,195,4.0,8.0,36,0.00,,,0.00,499.000000,,2013-05-11 16:22:00,
2013-05-11 09:33:00,71.0,43.0,-100.00,SSW,195,4.0,8.0,36,0.00,,,0.00,499.000000,,2013-05-11 16:33:00,
2013-05-11 09:42:00,71.0,43.0,-100.00,SSW,195,4.0,8.0,36,0.00,,,0.00,499.000000,,2013-05-11 16:42:00,
2013-05-11 09:52:00,71.0,43.0,-100.00,SSW,195,4.0,8.0,36,0.00,,,0.00,499.000000,,2013-05-11 16:52:00,
2013-05-11 10:22:00,76.0,42.0,-100.00,SSW,196,4.0,8.0,30,0.00,,,0.00,715.000000,,2013-05-11 17:22:00,
2013-05-11 10:31:00,76.0,42.0,-100.00,SSW,196,4.0,8.0,30,0.00,,,0.00,715.000000,,2013-05-11 17:31:00,
2013-05-11 10:41:00,76.0,42.0,-100.00,SSW,196,4.0,8.0,30,0.00,,,0.00,715.000000,,2013-05-11 17:41:00,
2013-05-11 10:52:00,76.0,42.0,-100.00,SSW,196,4.0,8.0,30,0.00,,,0.00,715.000000,,2013-05-11 17:52:00,
2013-05-11 11:21:00,81.0,41.0,-100.00,SSE,155,7.0,12.0,24,0.00,,,0.00,785.000000,,2013-05-11 18:21:00,
2013-05-11 11:32:00,81.0,41.0,-100.00,SSE,155,7.0,12.0,24,0.00,,,0.00,785.000000,,2013-05-11 18:32:00,
2013-05-11 11:41:00,81.0,41.0,-100.00,SSE,155,7.0,12.0,24,0.00,,,0.00,785.000000,,2013-05-11 18:41:00,
2013-05-11 11:51:00,81.0,41.0,-100.00,SSE,155,7.0,12.0,24,0.00,,,0.00,785.000000,,2013-05-11 18:51:00,
2013-05-11 12:21:00,85.0,37.0,-100.00,South,178,8.0,13.0,18,0.00,,,0.00,1003.000000,,2013-05-11 19:21:00,
2013-05-11 12:32:00,85.0,37.0,-100.00,South,178,8.0,13.0,18,0.00,,,0.00,1003.000000,,2013-05-11 19:32:00,
2013-05-11 12:41:00,85.0,37.0,-100.00,South,178,8.0,13.0,18,0.00,,,0.00,1003.000000,,2013-05-11 19:41:00,
2013-05-11 12:52:00,85.0,37.0,-100.00,South,178,8.0,13.0,18,0.00,,,0.00,1003.000000,,2013-05-11 19:52:00,
2013-05-11 13:22:00,89.0,32.0,-100.00,South,177,12.0,21.0,13,0.00,,,-99.99,1085.000000,,2013-05-11 20:22:00,
2013-05-11 13:32:00,89.0,32.0,-100.00,South,177,12.0,21.0,13,0.00,,,-99.99,1085.000000,,2013-05-11 20:32:00,
2013-05-11 13:42:00,89.0,32.0,-100.00,South,177,12.0,21.0,13,0.00,,,-99.99,1085.000000,,2013-05-11 20:42:00,
2013-05-11 13:52:00,89.0,32.0,-100.00,South,177,12.0,21.0,13,0.00,,,-99.99,1085.000000,,2013-05-11 20:52:00,
2013-05-11 14:21:00,93.0,33.0,-100.00,SW,229,7.0,21.0,12,0.00,,,0.00,1125.000000,,2013-05-11 21:21:00,
2013-05-11 14:33:00,93.0,33.0,-100.00,SW,229,7.0,21.0,12,0.00,,,0.00,1125.000000,,2013-05-11 21:33:00,
2013-05-11 14:43:00,93.0,33.0,-100.00,SW,229,7.0,21.0,12,0.00,,,0.00,1125.000000,,2013-05-11 21:43:00,
2013-05-11 14:52:00,93.0,33.0,-100.00,SW,229,7.0,21.0,12,0.00,,,0.00,1125.000000,,2013-05-11 21:52:00,
2013-05-11 15:23:00,92.0,32.0,-100.00,South,177,8.0,18.0,12,0.00,,,0.00,802.000000,,2013-05-11 22:23:00,
2013-05-11 15:33:00,92.0,32.0,-100.00,South,177,8.0,18.0,12,0.00,,,0.00,802.000000,,2013-05-11 22:33:00,
2013-05-11 15:42:00,92.0,32.0,-100.00,South,177,8.0,18.0,12,0.00,,,0.00,802.000000,,2013-05-11 22:42:00,
2013-05-11 15:52:00,92.0,32.0,-100.00,South,177,8.0,18.0,12,0.00,,,0.00,802.000000,,2013-05-11 22:52:00,
2013-05-11 16:22:00,87.0,44.0,-100.00,NNW,338,20.0,28.0,22,0.00,,,0.00,281.000000,,2013-05-11 23:22:00,
2013-05-11 16:32:00,87.0,44.0,-100.00,NNW,338,20.0,28.0,22,0.00,,,0.00,281.000000,,2013-05-11 23:32:00,
2013-05-11 16:42:00,87.0,44.0,-100.00,NNW,338,20.0,28.0,22,0.00,,,0.00,281.000000,,2013-05-11 23:42:00,
2013-05-11 16:52:00,87.0,44.0,-100.00,NNW,338,20.0,28.0,22,0.00,,,0.00,281.000000,,2013-05-11 23:52:00,
2013-05-11 17:21:00,89.0,40.0,-100.00,North,356,14.0,30.0,18,0.00,,,0.00,613.000000,,2013-05-12 00:21:00,
2013-05-11 17:32:00,89.0,40.0,-100.00,North,356,14.0,30.0,18,0.00,,,0.00,613.000000,,2013-05-12 00:32:00,
2013-05-11 17:42:00,89.0,40.0,-100.00,North,356,14.0,30.0,18,0.00,,,0.00,613.000000,,2013-05-12 00:42:00,
2013-05-11 17:52:00,89.0,40.0,-100.00,North,356,14.0,30.0,18,0.00,,,0.00,613.000000,,2013-05-12 00:52:00,
2013-05-11 18:21:00,81.0,44.0,-100.00,East,94,6.0,20.0,27,0.00,,,0.00,95.000000,,2013-05-12 01:21:00,
2013-05-11 18:32:00,81.0,44.0,-100.00,East,94,6.0,20.0,27,0.00,,,0.00,95.000000,,2013-05-12 01:32:00,
2013-05-11 18:41:00,81.0,44.0,-100.00,East,94,6.0,20.0,27,0.00,,,0.00,95.000000,,2013-05-12 01:41:00,
2013-05-11 18:52:00,81.0,44.0,-100.00,East,94,6.0,20.0,27,0.00,,,0.00,95.000000,,2013-05-12 01:52:00,
2013-05-11 19:22:00,85.0,43.0,-100.00,NNW,344,7.0,11.0,23,0.00,,,0.00,209.000000,,2013-05-12 02:22:00,
2013-05-11 19:31:00,85.0,43.0,-100.00,NNW,344,7.0,11.0,23,0.00,,,0.00,209.000000,,2013-05-12 02:31:00,
2013-05-11 19:42:00,85.0,43.0,-100.00,NNW,344,7.0,11.0,23,0.00,,,0.00,209.000000,,2013-05-12 02:42:00,
2013-05-11 19:52:00,85.0,43.0,-100.00,NNW,344,7.0,11.0,23,0.00,,,0.00,209.000000,,2013-05-12 02:52:00,
2013-05-11 20:22:00,81.0,43.0,-100.00,North,11,11.0,21.0,26,0.00,,,0.00,30.000000,,2013-05-12 03:22:00,
2013-05-11 20:32:00,81.0,43.0,-100.00,North,11,11.0,21.0,26,0.00,,,0.00,30.000000,,2013-05-12 03:32:00,
2013-05-11 20:42:00,81.0,43.0,-100.00,North,11,11.0,21.0,26,0.00,,,0.00,30.000000,,2013-05-12 03:42:00,
2013-05-11 20:53:00,81.0,43.0,-100.00,North,11,11.0,21.0,26,0.00,,,0.00,30.000000,,2013-05-12 03:53:00,
2013-05-11 21:22:00,77.0,42.0,-100.00,North,3,11.0,16.0,29,0.00,,,0.00,0.000000,,2013-05-12 04:22:00,
2013-05-11 21:33:00,77.0,42.0,-100.00,North,3,11.0,16.0,29,0.00,,,0.00,0.000000,,2013-05-12 04:33:00,
2013-05-11 21:43:00,77.0,42.0,-100.00,North,3,11.0,16.0,29,0.00,,,0.00,0.000000,,2013-05-12 04:43:00,
2013-05-11 21:52:00,77.0,42.0,-100.00,North,3,11.0,16.0,29,0.00,,,0.00,0.000000,,2013-05-12 04:52:00,
2013-05-11 22:22:00,76.0,43.0,-100.00,North,0,13.0,21.0,31,0.00,,,0.00,0.000000,,2013-05-12 05:22:00,
2013-05-11 22:31:00,76.0,43.0,-100.00,North,0,13.0,21.0,31,0.00,,,0.00,0.000000,,2013-05-12 05:31:00,
2013-05-11 22:42:00,76.0,43.0,-100.00,North,0,13.0,21.0,31,0.00,,,0.00,0.000000,,2013-05-12 05:42:00,
2013-05-11 22:51:00,76.0,43.0,-100.00,North,0,13.0,21.0,31,0.00,,,0.00,0.000000,,2013-05-12 05:51:00,
2013-05-11 23:21:00,74.0,44.0,-100.00,NNE,14,8.0,17.0,34,0.00,,,0.00,0.000000,,2013-05-12 06:21:00,
2013-05-11 23:32:00,74.0,44.0,-100.00,NNE,14,8.0,17.0,34,0.00,,,0.00,0.000000,,2013-05-12 06:32:00,
2013-05-11 23:42:00,74.0,44.0,-100.00,NNE,14,8.0,17.0,34,0.00,,,0.00,0.000000,,2013-05-12 06:42:00,
2013-05-11 23:51:00,74.0,44.0,-100.00,NNE,14,8.0,17.0,34,0.00,,,0.00,0.000000,,2013-05-12 06:51:00,